STARLINK-36315

Last updated on Sat Mar 14 2026 00:02:06 GMT+0000 (Coordinated Universal Time)

1 67731U 26026L 26072.58334491 .00106702 00000+0 31829-2 0 9994 2 67731 97.2849 127.1374 0001343 95.2443 241.3468 15.34216257 5940
UTC large
Height (km)
Speed (km/s)
/
Latitude / Longitude
Inclination (degrees)
Orbital Period (minutes)
Azimuth
Elevation
Range (km)
Doppler Factor

Next 0 passes for location: London (51.5072 / 0.1276)

Sorry there are no passes over London.